Time,TemperatureF,DewpointF,PressureIn,WindDirection,WindDirectionDegrees,WindSpeedMPH,WindSpeedGustMPH,Humidity,HourlyPrecipIn,Conditions,Clouds,dailyrainin,SolarRadiationWatts/m^2,SoftwareType,DateUTC
2013-06-11 00:03:00,61.0,61.0,-100.00,NNE,14,3.0,13.0,100,0.00,,,0.07,0.000000,,2013-06-11 10:03:00,
2013-06-11 00:12:00,61.0,61.0,-100.00,NNE,14,3.0,13.0,100,0.00,,,0.07,0.000000,,2013-06-11 10:12:00,
2013-06-11 00:22:00,61.0,61.0,-100.00,NNE,14,3.0,13.0,100,0.00,,,0.07,0.000000,,2013-06-11 10:22:00,
2013-06-11 00:43:00,60.0,60.0,-100.00,North,3,2.0,8.0,100,0.00,,,0.07,0.000000,,2013-06-11 10:43:00,
2013-06-11 00:52:00,60.0,60.0,-100.00,North,3,2.0,8.0,100,0.00,,,0.07,0.000000,,2013-06-11 10:52:00,
2013-06-11 01:02:00,60.0,60.0,-100.00,North,3,2.0,8.0,100,0.00,,,0.07,0.000000,,2013-06-11 11:02:00,
2013-06-11 01:12:00,60.0,60.0,-100.00,North,3,2.0,8.0,100,0.00,,,0.07,0.000000,,2013-06-11 11:12:00,
2013-06-11 01:21:00,60.0,60.0,-100.00,North,3,2.0,8.0,100,0.00,,,0.07,0.000000,,2013-06-11 11:21:00,
2013-06-11 01:42:00,60.0,60.0,-100.00,North,8,2.0,9.0,100,0.00,,,-99.99,0.000000,,2013-06-11 11:42:00,
2013-06-11 01:52:00,60.0,60.0,-100.00,North,8,2.0,9.0,100,0.00,,,-99.99,0.000000,,2013-06-11 11:52:00,
2013-06-11 02:02:00,60.0,60.0,-100.00,North,8,2.0,9.0,100,0.00,,,-99.99,0.000000,,2013-06-11 12:02:00,
2013-06-11 02:12:00,60.0,60.0,-100.00,North,8,2.0,9.0,100,0.00,,,-99.99,0.000000,,2013-06-11 12:12:00,
2013-06-11 02:21:00,60.0,60.0,-100.00,North,8,2.0,9.0,100,0.00,,,-99.99,0.000000,,2013-06-11 12:21:00,
2013-06-11 02:42:00,58.0,57.0,-100.00,NNE,15,2.0,8.0,96,0.00,,,-99.99,0.000000,,2013-06-11 12:42:00,
2013-06-11 02:52:00,58.0,57.0,-100.00,NNE,15,2.0,8.0,96,0.00,,,-99.99,0.000000,,2013-06-11 12:52:00,
2013-06-11 03:02:00,58.0,57.0,-100.00,NNE,15,2.0,8.0,96,0.00,,,-99.99,0.000000,,2013-06-11 13:02:00,
2013-06-11 03:12:00,58.0,57.0,-100.00,NNE,15,2.0,8.0,96,0.00,,,-99.99,0.000000,,2013-06-11 13:12:00,
2013-06-11 03:22:00,58.0,57.0,-100.00,NNE,15,2.0,8.0,96,0.00,,,-99.99,0.000000,,2013-06-11 13:22:00,
2013-06-11 03:42:00,57.0,56.0,-100.00,North,356,3.0,8.0,96,0.00,,,0.07,0.000000,,2013-06-11 13:42:00,
2013-06-11 03:52:00,57.0,56.0,-100.00,North,356,3.0,8.0,96,0.00,,,0.07,0.000000,,2013-06-11 13:52:00,
2013-06-11 04:02:00,57.0,56.0,-100.00,North,356,3.0,8.0,96,0.00,,,0.07,0.000000,,2013-06-11 14:02:00,
2013-06-11 04:12:00,57.0,56.0,-100.00,North,356,3.0,8.0,96,0.00,,,0.07,0.000000,,2013-06-11 14:12:00,
2013-06-11 04:21:00,57.0,56.0,-100.00,North,356,3.0,8.0,96,0.00,,,0.07,0.000000,,2013-06-11 14:21:00,
2013-06-11 04:42:00,56.0,55.0,-100.00,North,4,3.0,7.0,96,0.00,,,0.07,0.000000,,2013-06-11 14:42:00,
2013-06-11 04:53:00,56.0,55.0,-100.00,North,4,3.0,7.0,96,0.00,,,0.07,0.000000,,2013-06-11 14:53:00,
2013-06-11 05:02:00,56.0,55.0,-100.00,North,4,3.0,7.0,96,0.00,,,0.07,0.000000,,2013-06-11 15:02:00,
2013-06-11 05:12:00,56.0,55.0,-100.00,North,4,3.0,7.0,96,0.00,,,0.07,0.000000,,2013-06-11 15:12:00,
2013-06-11 05:21:00,56.0,55.0,-100.00,North,4,3.0,7.0,96,0.00,,,0.07,0.000000,,2013-06-11 15:21:00,
2013-06-11 05:43:00,55.0,53.0,-100.00,North,354,3.0,8.0,93,0.00,,,0.07,0.000000,,2013-06-11 15:43:00,
2013-06-11 05:53:00,55.0,53.0,-100.00,North,354,3.0,8.0,93,0.00,,,0.07,0.000000,,2013-06-11 15:53:00,
2013-06-11 06:02:00,55.0,53.0,-100.00,North,354,3.0,8.0,93,0.00,,,0.07,0.000000,,2013-06-11 16:02:00,
2013-06-11 06:12:00,55.0,53.0,-100.00,North,354,3.0,8.0,93,0.00,,,0.07,0.000000,,2013-06-11 16:12:00,
2013-06-11 06:22:00,55.0,53.0,-100.00,North,354,3.0,8.0,93,0.00,,,0.07,0.000000,,2013-06-11 16:22:00,
2013-06-11 06:42:00,58.0,56.0,-100.00,NNW,348,2.0,11.0,92,0.00,,,0.07,2.000000,,2013-06-11 16:42:00,
2013-06-11 06:52:00,58.0,56.0,-100.00,NNW,348,2.0,11.0,92,0.00,,,0.07,2.000000,,2013-06-11 16:52:00,
2013-06-11 07:02:00,58.0,56.0,-100.00,NNW,348,2.0,11.0,92,0.00,,,0.07,2.000000,,2013-06-11 17:02:00,
2013-06-11 07:12:00,58.0,56.0,-100.00,NNW,348,2.0,11.0,92,0.00,,,0.07,2.000000,,2013-06-11 17:12:00,
2013-06-11 07:22:00,58.0,56.0,-100.00,NNW,348,2.0,11.0,92,0.00,,,0.07,2.000000,,2013-06-11 17:22:00,
2013-06-11 07:43:00,56.0,55.0,-100.00,North,8,3.0,6.0,95,0.00,,,0.07,39.000000,,2013-06-11 17:43:00,
2013-06-11 07:52:00,56.0,55.0,-100.00,North,8,3.0,6.0,95,0.00,,,0.07,39.000000,,2013-06-11 17:52:00,
2013-06-11 08:02:00,56.0,55.0,-100.00,North,8,3.0,6.0,95,0.00,,,0.07,39.000000,,2013-06-11 18:02:00,
2013-06-11 08:12:00,56.0,55.0,-100.00,North,8,3.0,6.0,95,0.00,,,0.07,39.000000,,2013-06-11 18:12:00,
2013-06-11 08:21:00,56.0,55.0,-100.00,North,8,3.0,6.0,95,0.00,,,0.07,39.000000,,2013-06-11 18:21:00,
2013-06-11 08:43:00,60.0,58.0,-100.00,NNE,23,2.0,10.0,92,0.00,,,0.07,273.000000,,2013-06-11 18:43:00,
2013-06-11 08:52:00,60.0,58.0,-100.00,NNE,23,2.0,10.0,92,0.00,,,0.07,273.000000,,2013-06-11 18:52:00,
2013-06-11 09:02:00,60.0,58.0,-100.00,NNE,23,2.0,10.0,92,0.00,,,0.07,273.000000,,2013-06-11 19:02:00,
2013-06-11 09:12:00,60.0,58.0,-100.00,NNE,23,2.0,10.0,92,0.00,,,0.07,273.000000,,2013-06-11 19:12:00,
2013-06-11 09:21:00,60.0,58.0,-100.00,NNE,23,2.0,10.0,92,0.00,,,0.07,273.000000,,2013-06-11 19:21:00,
2013-06-11 09:42:00,63.0,57.0,-100.00,NE,39,3.0,12.0,81,0.00,,,0.07,302.000000,,2013-06-11 19:42:00,
2013-06-11 09:52:00,63.0,57.0,-100.00,NE,39,3.0,12.0,81,0.00,,,0.07,302.000000,,2013-06-11 19:52:00,
2013-06-11 10:02:00,63.0,57.0,-100.00,NE,39,3.0,12.0,81,0.00,,,0.07,302.000000,,2013-06-11 20:02:00,
2013-06-11 10:12:00,63.0,57.0,-100.00,NE,39,3.0,12.0,81,0.00,,,0.07,302.000000,,2013-06-11 20:12:00,
2013-06-11 10:21:00,63.0,57.0,-100.00,NE,39,3.0,12.0,81,0.00,,,0.07,302.000000,,2013-06-11 20:21:00,
2013-06-11 10:42:00,65.0,60.0,-100.00,NNE,25,4.0,16.0,83,0.01,,,0.08,481.000000,,2013-06-11 20:42:00,
2013-06-11 10:52:00,65.0,60.0,-100.00,NNE,25,4.0,16.0,83,0.01,,,0.08,481.000000,,2013-06-11 20:52:00,
2013-06-11 11:02:00,65.0,60.0,-100.00,NNE,25,4.0,16.0,83,0.01,,,0.08,481.000000,,2013-06-11 21:02:00,
2013-06-11 11:12:00,65.0,60.0,-100.00,NNE,25,4.0,16.0,83,0.01,,,0.08,481.000000,,2013-06-11 21:12:00,
2013-06-11 11:21:00,65.0,60.0,-100.00,NNE,25,4.0,16.0,83,0.01,,,0.08,481.000000,,2013-06-11 21:21:00,
2013-06-11 11:42:00,66.0,61.0,-100.00,East,85,4.0,13.0,84,0.00,,,0.08,492.000000,,2013-06-11 21:42:00,
2013-06-11 11:53:00,66.0,61.0,-100.00,East,85,4.0,13.0,84,0.00,,,0.08,492.000000,,2013-06-11 21:53:00,
2013-06-11 12:03:00,66.0,61.0,-100.00,East,85,4.0,13.0,84,0.00,,,0.08,492.000000,,2013-06-11 22:03:00,
2013-06-11 12:12:00,66.0,61.0,-100.00,East,85,4.0,13.0,84,0.00,,,0.08,492.000000,,2013-06-11 22:12:00,
2013-06-11 12:22:00,66.0,61.0,-100.00,East,85,4.0,13.0,84,0.00,,,0.08,492.000000,,2013-06-11 22:22:00,
2013-06-11 12:42:00,64.0,62.0,-100.00,ENE,71,3.0,12.0,92,0.00,,,0.08,231.000000,,2013-06-11 22:42:00,
2013-06-11 12:52:00,64.0,62.0,-100.00,ENE,71,3.0,12.0,92,0.00,,,0.08,231.000000,,2013-06-11 22:52:00,
2013-06-11 13:02:00,64.0,62.0,-100.00,ENE,71,3.0,12.0,92,0.00,,,0.08,231.000000,,2013-06-11 23:02:00,
2013-06-11 13:12:00,64.0,62.0,-100.00,ENE,71,3.0,12.0,92,0.00,,,0.08,231.000000,,2013-06-11 23:12:00,
2013-06-11 13:21:00,64.0,62.0,-100.00,ENE,71,3.0,12.0,92,0.00,,,0.08,231.000000,,2013-06-11 23:21:00,
2013-06-11 13:42:00,64.0,58.0,-100.00,NE,56,4.0,14.0,82,0.00,,,0.08,251.000000,,2013-06-11 23:42:00,
2013-06-11 13:52:00,64.0,58.0,-100.00,NE,56,4.0,14.0,82,0.00,,,0.08,251.000000,,2013-06-11 23:52:00,
2013-06-11 14:02:00,64.0,58.0,-100.00,NE,56,4.0,14.0,82,0.00,,,0.08,251.000000,,2013-06-12 00:02:00,
2013-06-11 14:12:00,64.0,58.0,-100.00,NE,56,4.0,14.0,82,0.00,,,0.08,251.000000,,2013-06-12 00:12:00,
2013-06-11 14:21:00,64.0,58.0,-100.00,NE,56,4.0,14.0,82,0.00,,,0.08,251.000000,,2013-06-12 00:21:00,
2013-06-11 14:42:00,65.0,62.0,-100.00,NE,51,4.0,14.0,90,0.00,,,0.08,348.000000,,2013-06-12 00:42:00,
2013-06-11 14:52:00,65.0,62.0,-100.00,NE,51,4.0,14.0,90,0.00,,,0.08,348.000000,,2013-06-12 00:52:00,
2013-06-11 15:02:00,65.0,62.0,-100.00,NE,51,4.0,14.0,90,0.00,,,0.08,348.000000,,2013-06-12 01:02:00,
2013-06-11 15:11:00,65.0,62.0,-100.00,NE,51,4.0,14.0,90,0.00,,,0.08,348.000000,,2013-06-12 01:11:00,
2013-06-11 15:21:00,65.0,62.0,-100.00,NE,51,4.0,14.0,90,0.00,,,0.08,348.000000,,2013-06-12 01:21:00,
2013-06-11 15:42:00,64.0,60.0,-100.00,ENE,65,4.0,13.0,87,0.00,,,0.08,232.000000,,2013-06-12 01:42:00,
2013-06-11 15:52:00,64.0,60.0,-100.00,ENE,65,4.0,13.0,87,0.00,,,0.08,232.000000,,2013-06-12 01:52:00,
2013-06-11 16:02:00,64.0,60.0,-100.00,ENE,65,4.0,13.0,87,0.00,,,0.08,232.000000,,2013-06-12 02:02:00,
2013-06-11 16:12:00,64.0,60.0,-100.00,ENE,65,4.0,13.0,87,0.00,,,0.08,232.000000,,2013-06-12 02:12:00,
2013-06-11 16:21:00,64.0,60.0,-100.00,ENE,65,4.0,13.0,87,0.00,,,0.08,232.000000,,2013-06-12 02:21:00,
2013-06-11 16:42:00,64.0,61.0,-100.00,NE,41,3.0,12.0,89,0.00,,,0.06,163.000000,,2013-06-12 02:42:00,
2013-06-11 16:52:00,64.0,61.0,-100.00,NE,41,3.0,12.0,89,0.00,,,0.06,163.000000,,2013-06-12 02:52:00,
2013-06-11 17:02:00,64.0,61.0,-100.00,NE,41,3.0,12.0,89,0.00,,,0.06,163.000000,,2013-06-12 03:02:00,
2013-06-11 17:12:00,64.0,61.0,-100.00,NE,41,3.0,12.0,89,0.00,,,0.06,163.000000,,2013-06-12 03:12:00,
2013-06-11 17:21:00,64.0,61.0,-100.00,NE,41,3.0,12.0,89,0.00,,,0.06,163.000000,,2013-06-12 03:21:00,
2013-06-11 17:43:00,65.0,59.0,-100.00,NE,46,3.0,11.0,81,0.00,,,0.05,224.000000,,2013-06-12 03:43:00,
2013-06-11 17:53:00,65.0,59.0,-100.00,NE,46,3.0,11.0,81,0.00,,,0.05,224.000000,,2013-06-12 03:53:00,
2013-06-11 18:02:00,65.0,59.0,-100.00,NE,46,3.0,11.0,81,0.00,,,0.05,224.000000,,2013-06-12 04:02:00,
2013-06-11 18:12:00,65.0,59.0,-100.00,NE,46,3.0,11.0,81,0.00,,,0.05,224.000000,,2013-06-12 04:12:00,
2013-06-11 18:22:00,65.0,59.0,-100.00,NE,46,3.0,11.0,81,0.00,,,0.05,224.000000,,2013-06-12 04:22:00,
2013-06-11 18:42:00,64.0,61.0,-100.00,NNE,24,4.0,13.0,89,0.00,,,0.03,155.000000,,2013-06-12 04:42:00,
2013-06-11 18:52:00,64.0,61.0,-100.00,NNE,24,4.0,13.0,89,0.00,,,0.03,155.000000,,2013-06-12 04:52:00,
2013-06-11 19:02:00,64.0,61.0,-100.00,NNE,24,4.0,13.0,89,0.00,,,0.03,155.000000,,2013-06-12 05:02:00,
2013-06-11 19:12:00,64.0,61.0,-100.00,NNE,24,4.0,13.0,89,0.00,,,0.03,155.000000,,2013-06-12 05:12:00,
2013-06-11 19:21:00,64.0,61.0,-100.00,NNE,24,4.0,13.0,89,0.00,,,0.03,155.000000,,2013-06-12 05:21:00,
2013-06-11 19:42:00,63.0,62.0,-100.00,NNE,13,3.0,11.0,95,0.00,,,0.02,30.000000,,2013-06-12 05:42:00,
2013-06-11 19:52:00,63.0,62.0,-100.00,NNE,13,3.0,11.0,95,0.00,,,0.02,30.000000,,2013-06-12 05:52:00,
2013-06-11 20:02:00,63.0,62.0,-100.00,NNE,13,3.0,11.0,95,0.00,,,0.02,30.000000,,2013-06-12 06:02:00,
2013-06-11 20:12:00,63.0,62.0,-100.00,NNE,13,3.0,11.0,95,0.00,,,0.02,30.000000,,2013-06-12 06:12:00,
2013-06-11 20:21:00,63.0,62.0,-100.00,NNE,13,3.0,11.0,95,0.00,,,0.02,30.000000,,2013-06-12 06:21:00,
2013-06-11 20:42:00,62.0,61.0,-100.00,NE,37,3.0,9.0,97,0.00,,,0.01,0.000000,,2013-06-12 06:42:00,
2013-06-11 20:52:00,62.0,61.0,-100.00,NE,37,3.0,9.0,97,0.00,,,0.01,0.000000,,2013-06-12 06:52:00,
2013-06-11 21:02:00,62.0,61.0,-100.00,NE,37,3.0,9.0,97,0.00,,,-99.99,0.000000,,2013-06-12 07:02:00,
2013-06-11 21:12:00,62.0,61.0,-100.00,NE,37,3.0,9.0,97,0.00,,,-99.99,0.000000,,2013-06-12 07:12:00,
2013-06-11 21:22:00,62.0,61.0,-100.00,NE,37,3.0,9.0,97,0.00,,,-99.99,0.000000,,2013-06-12 07:22:00,
2013-06-11 21:43:00,62.0,61.0,-100.00,NNE,16,3.0,11.0,97,0.00,,,0.01,0.000000,,2013-06-12 07:43:00,
2013-06-11 21:53:00,62.0,61.0,-100.00,NNE,16,3.0,11.0,97,0.00,,,0.01,0.000000,,2013-06-12 07:53:00,
2013-06-11 22:02:00,62.0,61.0,-100.00,NNE,16,3.0,11.0,97,0.00,,,0.01,0.000000,,2013-06-12 08:02:00,
2013-06-11 22:12:00,62.0,61.0,-100.00,NNE,16,3.0,11.0,97,0.00,,,0.01,0.000000,,2013-06-12 08:12:00,
2013-06-11 22:22:00,62.0,61.0,-100.00,NNE,16,3.0,11.0,97,0.00,,,0.01,0.000000,,2013-06-12 08:22:00,
2013-06-11 22:43:00,62.0,61.0,-100.00,North,9,3.0,10.0,95,0.00,,,0.01,0.000000,,2013-06-12 08:43:00,
2013-06-11 22:53:00,62.0,61.0,-100.00,North,9,3.0,10.0,95,0.00,,,0.01,0.000000,,2013-06-12 08:53:00,
2013-06-11 23:01:00,62.0,61.0,-100.00,North,9,3.0,10.0,95,0.00,,,0.01,0.000000,,2013-06-12 09:01:00,
2013-06-11 23:11:00,62.0,61.0,-100.00,North,9,3.0,10.0,95,0.00,,,0.01,0.000000,,2013-06-12 09:11:00,
2013-06-11 23:22:00,62.0,61.0,-100.00,North,9,3.0,10.0,95,0.00,,,0.01,0.000000,,2013-06-12 09:22:00,
2013-06-11 23:23:00,62.0,60.0,-100.00,NNE,15,3.0,12.0,94,0.00,,,0.01,0.000000,,2013-06-12 09:23:00,
2013-06-11 23:43:00,62.0,60.0,-100.00,NNE,15,3.0,12.0,94,0.00,,,0.01,0.000000,,2013-06-12 09:43:00,
2013-06-11 23:53:00,62.0,60.0,-100.00,NNE,15,3.0,12.0,94,0.00,,,0.01,0.000000,,2013-06-12 09:53:00,